| time (UTC) | temp C | wind direction | speed KPH | gust KPH | rain 1hr cm | rain 24hr cm | rain mn cm | humidity % | barometer mb |
| 20260903090527 | 12 | 256 | 8.0 | 12.9 | 0.00 | 0.00 | 0.00 | 69 | 1017.5 |
| 20260903085532 | 12 | 285 | 9.7 | 16.1 | 0.00 | 0.00 | 0.00 | 69 | 1017.4 |
| 20260903084517 | 12 | 281 | 8.0 | 14.5 | 0.00 | 0.00 | 0.00 | 70 | 1017.1 |
| 20260903083525 | 12 | 288 | 8.0 | 16.1 | 0.00 | 0.00 | 0.00 | 69 | 1016.9 |
| 20260903082532 | 12 | 287 | 6.4 | 11.3 | 0.00 | 0.00 | 0.00 | 68 | 1016.7 |
| 20260903081517 | 12 | 265 | 6.4 | 11.3 | 0.00 | 0.00 | 0.00 | 68 | 1016.5 |
| 20260903080523 | 12 | 278 | 6.4 | 12.9 | 0.00 | 0.00 | 0.00 | 68 | 1016.5 |
| 20260903075529 | 12 | 274 | 6.4 | 11.3 | 0.00 | 0.00 | 0.00 | 68 | 1016.3 |
| 20260903074536 | 12 | 299 | 8.0 | 16.1 | 0.00 | 0.00 | 0.00 | 68 | 1016.2 |
| 20260903073529 | 12 | 279 | 8.0 | 17.7 | 0.00 | 0.00 | 0.00 | 67 | 1016.0 |
| 20260903072528 | 13 | 282 | 6.4 | 12.9 | 0.00 | 0.00 | 0.00 | 66 | 1015.8 |
| 20260903071533 | 13 | 273 | 6.4 | 12.9 | 0.00 | 0.00 | 0.00 | 65 | 1015.8 |
| 20260903070544 | 13 | 255 | 9.7 | 17.7 | 0.00 | 0.00 | 0.00 | 65 | 1015.6 |
| 20260903065520 | 13 | 257 | 9.7 | 17.7 | 0.00 | 0.00 | 0.00 | 64 | 1015.5 |
| 20260903064526 | 13 | 273 | 9.7 | 17.7 | 0.00 | 0.00 | 0.00 | 63 | 1015.5 |
| 20260903063531 | 13 | 256 | 8.0 | 19.3 | 0.00 | 0.00 | 0.00 | 62 | 1015.5 |
| 20260903062518 | 13 | 256 | 9.7 | 17.7 | 0.00 | 0.00 | 0.00 | 61 | 1015.2 |
| 20260903061525 | 14 | 260 | 11.3 | 22.5 | 0.00 | 0.00 | 0.00 | 59 | 1015.1 |
| 20260903060538 | 13 | 252 | 11.3 | 22.5 | 0.00 | 0.00 | 0.00 | 59 | 1015.0 |
| 20260903055517 | 14 | 244 | 11.3 | 20.9 | 0.00 | 0.00 | 0.00 | 59 | 1014.9 |
| 20260903054523 | 15 | 261 | 11.3 | 22.5 | 0.00 | 0.00 | 0.00 | 57 | 1014.8 |
| 20260903053530 | 14 | 242 | 12.9 | 19.3 | 0.00 | 0.00 | 0.00 | 58 | 1014.9 |
| 20260903052536 | 15 | 254 | 11.3 | 22.5 | 0.00 | 0.00 | 0.00 | 57 | 1014.7 |
| 20260903051527 | 15 | 250 | 11.3 | 25.7 | 0.00 | 0.00 | 0.00 | 56 | 1014.5 |
| 20260903050526 | 15 | 241 | 12.9 | 22.5 | 0.00 | 0.00 | 0.00 | 56 | 1014.3 |
| 20260903045536 | 15 | 248 | 11.3 | 22.5 | 0.00 | 0.00 | 0.00 | 55 | 1014.3 |
| 20260903044530 | 15 | 254 | 9.7 | 22.5 | 0.00 | 0.00 | 0.00 | 54 | 1014.1 |
| 20260903043516 | 15 | 260 | 9.7 | 17.7 | 0.00 | 0.00 | 0.00 | 54 | 1013.8 |
| 20260903042523 | 15 | 274 | 9.7 | 22.5 | 0.00 | 0.00 | 0.00 | 54 | 1013.6 |
| 20260903041530 | 16 | 302 | 16.1 | 30.6 | 0.00 | 0.00 | 0.00 | 53 | 1013.2 |
| 20260903040523 | 16 | 288 | 12.9 | 24.1 | 0.00 | 0.00 | 0.00 | 53 | 1013.1 |
| 20260903035523 | 16 | 265 | 11.3 | 22.5 | 0.00 | 0.00 | 0.00 | 53 | 1012.8 |
| 20260903034530 | 16 | 273 | 14.5 | 32.2 | 0.00 | 0.00 | 0.00 | 52 | 1012.7 |
| 20260903033043 | 16 | 294 | 16.1 | 25.7 | 0.00 | 0.00 | 0.00 | 51 | 1012.6 |
| 20260903032025 | 16 | 275 | 11.3 | 24.1 | 0.00 | 0.00 | 0.00 | 53 | 1012.5 |
| 20260903031035 | 16 | 294 | 11.3 | 24.1 | 0.00 | 0.00 | 0.00 | 53 | 1012.4 |
| 20260903030023 | 16 | 298 | 14.5 | 27.4 | 0.00 | 0.00 | 0.00 | 52 | 1012.5 |
| 20260903025038 | 16 | 288 | 16.1 | 32.2 | 0.00 | 0.00 | 0.00 | 53 | 1012.5 |
| 20260903024019 | 15 | 277 | 16.1 | 29.0 | 0.00 | 0.00 | 0.00 | 54 | 1012.3 |
| 20260903023026 | 16 | 300 | 16.1 | 27.4 | 0.00 | 0.00 | 0.00 | 53 | 1012.4 |
| 20260903021520 | 16 | 285 | 16.1 | 20.9 | 0.00 | 0.00 | 0.00 | 53 | 1012.2 |
| 20260903021023 | 16 | 293 | 16.1 | 32.2 | 0.00 | 0.00 | 0.00 | 53 | 1012.2 |
| 20260903020030 | 16 | 312 | 16.1 | 33.8 | 0.00 | 0.00 | 0.00 | 53 | 1012.3 |
| 20260903015037 | 15 | 297 | 12.9 | 24.1 | 0.00 | 0.00 | 0.00 | 54 | 1012.2 |
| 20260903014021 | 16 | 302 | 16.1 | 37.0 | 0.00 | 0.00 | 0.00 | 52 | 1012.3 |
| 20260903013028 | 16 | 306 | 16.1 | 30.6 | 0.00 | 0.00 | 0.00 | 51 | 1012.3 |
| 20260903012033 | 16 | 300 | 16.1 | 27.4 | 0.00 | 0.00 | 0.00 | 52 | 1012.2 |
| 20260903011020 | 16 | 271 | 11.3 | 20.9 | 0.00 | 0.00 | 0.00 | 53 | 1012.2 |
| 20260903010033 | 16 | 280 | 9.7 | 24.1 | 0.00 | 0.00 | 0.00 | 53 | 1012.0 |
| 20260903005033 | 16 | 301 | 16.1 | 27.4 | 0.00 | 0.00 | 0.00 | 53 | 1011.9 |
| 20260903004019 | 16 | 287 | 14.5 | 27.4 | 0.00 | 0.00 | 0.00 | 53 | 1012.0 |
| 20260903003031 | 16 | 272 | 14.5 | 25.7 | 0.00 | 0.00 | 0.00 | 54 | 1011.9 |
| 20260903002029 | 15 | 261 | 9.7 | 22.5 | 0.00 | 0.00 | 0.00 | 56 | 1012.0 |
| 20260903001033 | 15 | 265 | 14.5 | 24.1 | 0.00 | 0.00 | 0.00 | 56 | 1011.9 |
| 20260903000018 | 15 | 269 | 11.3 | 19.3 | 0.00 | 0.00 | 0.00 | 59 | 1011.9 |
| 20260902235025 | 15 | 266 | 14.5 | 30.6 | 0.00 | 0.00 | 0.00 | 60 | 1011.8 |
| 20260902234031 | 15 | 257 | 16.1 | 27.4 | 0.00 | 0.00 | 0.00 | 58 | 1011.6 |
| 20260902233016 | 15 | 235 | 12.9 | 25.7 | 0.00 | 0.00 | 0.00 | 62 | 1011.6 |
| 20260902232035 | 15 | 238 | 14.5 | 29.0 | 0.00 | 0.00 | 0.00 | 63 | 1011.4 |
| 20260902231028 | 15 | 239 | 14.5 | 24.1 | 0.00 | 0.00 | 0.00 | 64 | 1011.2 |
| 20260902230034 | 13 | 247 | 16.1 | 33.8 | 0.00 | 0.00 | 0.00 | 64 | 1011.2 |
| 20260902225018 | 13 | 243 | 17.7 | 25.7 | 0.00 | 0.00 | 0.00 | 65 | 1011.2 |
| 20260902224017 | 14 | 253 | 16.1 | 32.2 | 0.00 | 0.00 | 0.00 | 67 | 1010.8 |
| 20260902222017 | 14 | 259 | 12.9 | 24.1 | 0.00 | 0.00 | 0.00 | 69 | 1010.7 |
| 20260902221021 | 14 | 250 | 12.9 | 24.1 | 0.00 | 0.00 | 0.00 | 72 | 1010.7 |
| 20260902220027 | 13 | 261 | 12.9 | 25.7 | 0.00 | 0.00 | 0.00 | 74 | 1010.6 |
| 20260902215037 | 13 | 255 | 12.9 | 27.4 | 0.00 | 0.00 | 0.00 | 74 | 1010.4 |
| 20260902214022 | 13 | 255 | 14.5 | 25.7 | 0.00 | 0.00 | 0.00 | 78 | 1010.2 |
| 20260902213035 | 13 | 253 | 12.9 | 20.9 | 0.00 | 0.00 | 0.00 | 81 | 1009.7 |
| 20260902212041 | 12 | 257 | 8.0 | 16.1 | 0.00 | 0.00 | 0.00 | 87 | 1009.8 |
| 20260902211019 | 12 | 282 | 8.0 | 12.9 | 0.00 | 0.00 | 0.00 | 89 | 1009.9 |
| 20260902210027 | 12 | 320 | 6.4 | 11.3 | 0.00 | 0.00 | 0.00 | 91 | 1009.8 |
| 20260902204029 | 12 | 324 | 3.2 | 6.4 | 0.00 | 0.00 | 0.00 | 95 | 1009.5 |
| 20260902203035 | 11 | 14 | 1.6 | 6.4 | 0.00 | 0.00 | 0.00 | 96 | 1009.5 |
| 20260902202036 | 11 | 293 | 1.6 | 3.2 | 0.00 | 0.00 | 0.00 | 96 | 1009.4 |
| 20260902201031 | 11 | 304 | 1.6 | 4.8 | 0.00 | 0.00 | 0.00 | 96 | 1009.4 |
| 20260902200032 | 11 | 358 | 1.6 | 4.8 | 0.00 | 0.00 | 0.00 | 96 | 1009.3 |
| 20260902195021 | 11 | 23 | 0.0 | 3.2 | 0.00 | 0.00 | 0.00 | 96 | 1009.1 |
| 20260902194018 | 11 | 354 | 1.6 | 4.8 | 0.00 | 0.00 | 0.00 | 96 | 1008.9 |
| 20260902193026 | 11 | 326 | 1.6 | 6.4 | 0.00 | 0.00 | 0.00 | 96 | 1008.9 |
| 20260902192033 | 11 | 307 | 3.2 | 9.7 | 0.00 | 0.00 | 0.00 | 96 | 1009.0 |
| 20260902191021 | 11 | 355 | 3.2 | 8.0 | 0.00 | 0.00 | 0.00 | 97 | 1008.9 |
| 20260902190030 | 11 | 338 | 3.2 | 6.4 | 0.00 | 0.00 | 0.00 | 96 | 1008.7 |
| 20260902185017 | 11 | 4 | 3.2 | 8.0 | 0.00 | 0.00 | 0.00 | 96 | 1008.4 |
| 20260902184032 | 11 | 8 | 6.4 | 11.3 | 0.00 | 0.00 | 0.00 | 96 | 1008.2 |
| 20260902183032 | 11 | 357 | 3.2 | 6.4 | 0.00 | 0.00 | 0.00 | 96 | 1008.6 |
| 20260902182020 | 12 | 359 | 3.2 | 6.4 | 0.00 | 0.00 | 0.00 | 96 | 1008.5 |
| 20260902181028 | 12 | 3 | 3.2 | 6.4 | 0.00 | 0.00 | 0.00 | 95 | 1008.5 |
| 20260902180036 | 12 | 7 | 4.8 | 9.7 | 0.00 | 0.00 | 0.00 | 95 | 1008.9 |
| 20260902175027 | 12 | 351 | 4.8 | 9.7 | 0.00 | 0.00 | 0.00 | 95 | 1008.9 |
| 20260902174039 | 12 | 257 | 3.2 | 6.4 | 0.00 | 0.00 | 0.00 | 96 | 1008.9 |
| 20260902173020 | 12 | 302 | 1.6 | 6.4 | 0.00 | 0.00 | 0.00 | 96 | 1008.7 |
| 20260902172028 | 12 | 0 | 1.6 | 4.8 | 0.00 | 0.00 | 0.00 | 96 | 1008.9 |
| 20260902171016 | 12 | 8 | 3.2 | 8.0 | 0.00 | 0.00 | 0.00 | 96 | 1009.0 |
| 20260902170031 | 12 | 2 | 3.2 | 8.0 | 0.00 | 0.00 | 0.00 | 96 | 1009.1 |
| 20260902165033 | 12 | 7 | 4.8 | 9.7 | 0.00 | 0.00 | 0.00 | 96 | 1009.7 |
| 20260902164020 | 12 | 1 | 3.2 | 9.7 | 0.00 | 0.00 | 0.00 | 95 | 1010.1 |
| 20260902163030 | 12 | 354 | 3.2 | 8.0 | 0.00 | 0.00 | 0.00 | 95 | 1010.3 |
| 20260902162017 | 12 | 5 | 4.8 | 9.7 | 0.00 | 0.00 | 0.00 | 95 | 1010.4 |
| 20260902161032 | 12 | 7 | 3.2 | 6.4 | 0.00 | 0.00 | 0.00 | 95 | 1010.4 |
| 20260902160033 | 12 | 335 | 3.2 | 6.4 | 0.00 | 0.00 | 0.00 | 94 | 1010.9 |
| 20260902155022 | 12 | 12 | 4.8 | 8.0 | 0.00 | 0.00 | 0.00 | 94 | 1010.7 |
| 20260902154029 | 12 | 13 | 3.2 | 6.4 | 0.00 | 0.00 | 0.00 | 94 | 1011.2 |
| 20260902153017 | 12 | 350 | 4.8 | 9.7 | 0.00 | 0.00 | 0.00 | 94 | 1011.4 |
| 20260902152024 | 12 | 360 | 1.6 | 6.4 | 0.00 | 0.00 | 0.00 | 94 | 1011.1 |
| 20260902151030 | 12 | 356 | 1.6 | 6.4 | 0.00 | 0.00 | 0.00 | 94 | 1010.7 |
| 20260902150016 | 12 | 325 | 1.6 | 3.2 | 0.00 | 0.00 | 0.00 | 93 | 1011.0 |
| 20260902145023 | 12 | 8 | 1.6 | 3.2 | 0.00 | 0.00 | 0.00 | 93 | 1010.9 |
| 20260902144039 | 12 | 335 | 1.6 | 4.8 | 0.00 | 0.00 | 0.00 | 93 | 1011.4 |
| 20260902143036 | 12 | 336 | 1.6 | 4.8 | 0.00 | 0.00 | 0.00 | 92 | 1011.4 |
| 20260902142022 | 12 | 27 | 1.6 | 6.4 | 0.00 | 0.00 | 0.00 | 92 | 1011.9 |
| 20260902141028 | 12 | 356 | 1.6 | 4.8 | 0.00 | 0.00 | 0.00 | 91 | 1012.2 |
| 20260902140033 | 12 | 336 | 1.6 | 6.4 | 0.00 | 0.00 | 0.00 | 91 | 1012.2 |
| 20260902135019 | 13 | 352 | 3.2 | 8.0 | 0.00 | 0.00 | 0.00 | 89 | 1012.6 |
| 20260902134024 | 13 | 323 | 3.2 | 8.0 | 0.00 | 0.00 | 0.00 | 88 | 1012.9 |
| 20260902133030 | 13 | 286 | 6.4 | 12.9 | 0.00 | 0.00 | 0.00 | 86 | 1013.1 |
| 20260902132036 | 13 | 317 | 8.0 | 20.9 | 0.00 | 0.00 | 0.00 | 85 | 1013.3 |
| 20260902131034 | 13 | 325 | 6.4 | 12.9 | 0.00 | 0.00 | 0.00 | 86 | 1013.2 |
| 20260902130027 | 13 | 328 | 4.8 | 9.7 | 0.00 | 0.00 | 0.00 | 84 | 1013.2 |
| 20260902125021 | 14 | 305 | 6.4 | 9.7 | 0.00 | 0.00 | 0.00 | 81 | 1013.2 |
| 20260902123522 | 13 | 309 | 4.8 | 8.0 | 0.00 | 0.00 | 0.00 | 83 | 1013.0 |
| 20260902123036 | 12 | 297 | 1.6 | 4.8 | 0.00 | 0.00 | 0.00 | 85 | 1013.0 |
| 20260902120530 | 13 | 67 | 0.0 | 3.2 | 0.00 | 0.00 | 0.00 | 83 | 1013.2 |
| 20260902115531 | 13 | 151 | 0.0 | 1.6 | 0.00 | 0.00 | 0.00 | 82 | 1013.0 |
| 20260902114530 | 13 | 340 | 1.6 | 3.2 | 0.00 | 0.00 | 0.00 | 81 | 1013.1 |
| 20260902113519 | 13 | 138 | 1.6 | 1.6 | 0.00 | 0.00 | 0.00 | 81 | 1013.3 |
| 20260902113501 | 13 | 214 | 0.0 | 3.2 | 0.00 | 0.00 | 0.00 | 81 | 1013.3 |
| 20260902101048 | 17 | 295 | 8.0 | 11.3 | 0.00 | 0.00 | 0.00 | 75 | 1013.8 |
| 20260902100058 | 17 | 311 | 4.8 | 8.0 | 0.00 | 0.00 | 0.00 | 74 | 1013.5 |